Location: Bruch
(44.2051°N, 0.4120°E)
Time: 04:22:31
(UTC+00:00)

Cosmos 1515 Rocket - Pass Details

Date: 29 November 2020
Orbit: 605 x 631 km, 82.5° (Epoch: 24 January)

Event Time Altitude Azimuth Distance (km) Brightness Sun altitude
Exits shadow 05:46:50 11° 336° (NNW) 1,942 5.7 -14.8°
Maximum altitude 05:50:49 41° 268° (W) 925 4.0 -14.1°
Drops below altitude 10° 05:55:00 10° 199° (SSW) 2,005 6.2 -13.4°
Sets 05:57:18 0° 192° (SSW) 2,906 7.1 -13.0°
